Regional Weather Roundup
Issued by NWS

Home | Current Version | Previous Version | Graphics & Text | Print | Product List | Glossary Off
Versions: 1 2 3 4 5 6 7 8 9 10 11 12 13 14 15 16 17 18 19 20 21 22 23 24 25 26 27 28 29 30 31 32 33 34 35 36 37 38 39 40 41 42 43 44 45 46 47 48 49 50

000
ASUS43 KDTX 140201
RWRMI
MICHIGAN HOURLY REGIONAL WEATHER ROUNDUP
NATIONAL WEATHER SERVICE DETROIT/PONTIAC MI
900 PM EST WED DEC 13 2017

NOTE: "FAIR" INDICATES FEW OR NO CLOUDS BELOW 12,000 FEET WITH NO
SIGNIFICANT WEATHER AND/OR OBSTRUCTION TO VISIBILITY.

MIZ047>049-052>055-059>063-066>070-074>076-081>083-140300-
SOUTHEAST LOWER MICHIGAN

CITY           SKY/WX    TMP DP  RH WIND       PRES   REMARKS
ADRIAN         LGT SNOW  22  20  92 E10       29.35S FOG     WCI  11
ALMA           LGT SNOW  19  17  93 N10G17    29.52R WCI   8
ANN ARBOR      LGT SNOW  23  21  92 NE7       29.38R FOG     WCI  15
BAD AXE        LGT SNOW  19  17  91 NE7       29.54S WCI  10
CARO           LGT SNOW  20  18  91 N6        29.51S WCI  12
DETROIT CITY   LGT SNOW  24  21  88 E10       29.43F FOG     WCI  14
DETROIT        LGT SNOW  25  21  85 NE9       29.41R VSB 1   WCI  15
FLINT          LGT SNOW  19  15  84 NE13      29.47R FOG     WCI   6
GROSSE ILE     LGT SNOW  25  23  93 E6        29.39F WCI  18
HILLSDALE      LGT SNOW  23  21  93 N5        29.32R WCI  17
HOWELL         LGT SNOW  22  20  95 NE6       29.41R WCI  14

CITY           SKY/WX    TMP DP  RH WIND       PRES   REMARKS
JACKSON        LGT SNOW  22  18  85 N7        29.37R FOG     WCI  13
LAMBERTVILLE   LGT SNOW  24  22  91 E5        29.34F WCI  18
LANSING        LGT SNOW  20  17  88 NE16      29.45R FOG     WCI   6
LAPEER         LGT SNOW  19  16  88 NE7       29.48S WCI  10
MASON          LGT SNOW  22  17  83 N12       29.41R WCI  10
MONROE         LGT SNOW  26  23  88 E5        29.36F WCI  20
MT. CLEMENS    LGT SNOW  20  20  99 NE16      29.44S FOG     WCI   6
PONTIAC        LGT SNOW  19  17  92 NE14      29.41R VSB 1   WCI   6
PORT HOPE        N/A     24  19  81 NE7       29.55R WCI  16
PORT HURON     LGT SNOW  18  14  86 NE8       29.49S WCI   7
TRI CITIES     LGT SNOW  20  19  96 NE17      29.53S VSB 1   WCI   5
MIDLAND        LGT SNOW  21  18  88 N9        29.54S WCI  11
TROY           LGT SNOW  25  23  92 NE9       29.44F VSB 1   WCI  15
SAGINAW HB     LGT SNOW  19  19 100 NE17      29.51S WCI   4
$$
MIZ043>046-050>051-056>058-064>065-071>073-077>080-140300-
SOUTHWEST LOWER MICHIGAN

CITY           SKY/WX    TMP DP  RH WIND       PRES   REMARKS
BATTLE CREEK   LGT SNOW  21  18  88 N14       29.40R FOG     WCI   8
BENTON HARBOR  LGT SNOW  27  24  89 N8        29.45R VSB 1   WCI  19
BIG RAPIDS     LGT SNOW  17  12  82 NE8       29.55R WCI   6
COLDWATER      LGT SNOW  25  25  97 N7        29.35R WCI  18
HOLLAND        LGT SNOW  20  17  88 N9        29.50R FOG     WCI   9
GRAND RAPIDS   LGT SNOW  20  16  84 NE17      29.48R FOG     WCI   5
IONIA          LGT SNOW  19  15  86 NE18G26   29.47R WCI   3
KALAMAZOO      LGT SNOW  22  19  89 N9        29.41R FOG     WCI  12
LUDINGTON      CLOUDY    17  13  83 NE8G17    29.62R WCI   7
MARSHALL       LGT SNOW  21  19  93 N5        29.39R WCI  14
MOUNT PLEASANT LGT SNOW  19  15  84 N13G18    29.53R WCI   6
MUSKEGON       LGT SNOW  20  15  81 N15G22    29.55R WCI   6
SOUTH HAVEN    LGT SNOW  23  19  85 N9        29.47R WCI  13
$$
MIZ016>042-140300-
NORTHERN LOWER MICHIGAN

CITY           SKY/WX    TMP DP  RH WIND       PRES   REMARKS
ALPENA         CLOUDY    15  10  80 N12       29.65S WCI   2
BEAVER ISLAND  CLEAR     13   5  70 NE7       29.73R WCI   3
BELLAIRE       CLOUDY    15  12  86 N5        29.69R WCI   8
CADILLAC       LGT SNOW  13   9  85 N9        29.56R WCI   1
CHARLEVOIX     CLOUDY    17  11  80 NE8       29.72R WCI   6
FRANKFORT      CLOUDY    20  14  76 NE9G17    29.67R WCI   9
GAYLORD        LGT SNOW  11   7  84 VRB7      29.61R FOG     WCI   0
GRAYLING       MOCLDY    12   7  81 N12       29.61R WCI  -2
HARBOR SPRINGS FLURRIES  12   7  80 N7        29.69R WCI   1
HOUGHTON LAKE  LGT SNOW  14  10  84 N12       29.58R FOG     WCI   0
MANISTEE       FLURRIES  16  12  84 NE8G17    29.65R WCI   5
OSCODA         LGT SNOW  18  14  84 N10       29.59R WCI   6
PELLSTON       CLEAR      8   4  83 N7        29.71R WCI  -3
ROGERS CITY    FLURRIES  17   9  72 NE8       29.68S WCI   6
TRAVERSE CITY  FLURRIES  18  11  74 NE12      29.67R WCI   5
$$
MIZ007>008-015-140300-
EASTERN UPPER MICHIGAN

CITY           SKY/WX    TMP DP  RH WIND       PRES   REMARKS
KINROSS        PTCLDY     1  -3  83 N7        29.72R WCI -12
MACKINAC ISLAN PTCLDY    10   4  78 NE12      29.71R WCI  -5
NEWBERRY       CLOUDY     2   0  91 CALM      29.72R
S. S. MARIE    CLEAR      4  -4  69 NE5       29.73R WCI  -5
MUNISING         N/A     22  15  75 N17       29.76R WCI   8
$$
MIZ004>006-011>014-085-140300-
CENTRAL UPPER MICHIGAN

CITY           SKY/WX    TMP DP  RH WIND       PRES   REMARKS
MANISTIQUE     CLEAR      2  -3  80 NW12      29.75R WCI -14
ESCANABA       FLURRIES  12   6  77 NW5       29.77R WCI   4
MENOMINEE      FLURRIES  13   8  81 N9        29.78R WCI   1
SAWYER-GWINN   LGT SNOW  16  14  93 N7        29.73R WCI   6
$$
MIZ001>003-009>011-084-140300-
WESTERN UPPER MICHIGAN

CITY           SKY/WX    TMP DP  RH WIND       PRES   REMARKS
IRON MOUNTAIN  CLEAR     12   7  80 N3        29.74R
HOUGHTON       FLURRIES  15   7  70 N7        29.80R WCI   5
COPPER HARBOR    N/A     18  12  77 NE18G24   29.83R WCI   2
IRONWOOD       FLURRIES  17  13  84 N6        29.84R WCI   9
$$

ABBREVIATIONS USED IN REMARKS
   TC - TEMPERATURE IN CELSIUS
  WCI - WIND CHILL INDEX
   HX - HEAT INDEX
  VSB - VISIBILITY





USA.gov is the U.S. government's official web portal to all federal, state and local government web resources and services.